DateTimeUTC,F1_A11,F1_S11,BsB_S11,BsG_S11,BsR_S11,BbsB_S11,BbsG_S11,BbsR_S11,BaB_A11,BaG_A11,BaR_A11,Tu_S11,T_S11,Uu_S11,U_S11,P_S11,T1_A11
2021-04-17T02:00:00Z,00000200,21000000,,,,,,,-000.27,0000.42,0000.03,17.4,24.8,,00.0,0648.5,31.0
2021-04-17T02:01:00Z,00000200,21000000,,,,,,,-000.30,-000.42,-000.14,17.3,24.8,,00.0,0648.5,31.0
2021-04-17T02:02:00Z,00000200,21000000,,,,,,,0000.66,0000.49,0000.01,17.3,24.8,,00.0,0648.5,31.0
2021-04-17T02:03:00Z,00000200,61000000,,,,,,,-000.56,-000.52,-000.15,17.3,24.8,,00.0,0648.5,30.9
2021-04-17T02:04:00Z,00000200,41000000,0000.91,0000.72,0000.32,0000.11,0000.24,-000.11,0000.19,0000.47,0000.44,17.3,24.5,,00.0,0649.2,30.9
2021-04-17T02:05:00Z,00000200,01000000,0000.77,0000.40,0000.40,0000.61,0000.14,0000.15,0000.49,0000.44,-000.25,17.3,24.4,,00.0,0649.1,31.0
2021-04-17T02:06:00Z,00000200,01000000,0000.96,0000.42,0000.52,0000.36,0000.06,0000.15,0000.05,0000.02,0001.17,17.4,24.4,,00.0,0648.9,31.0
2021-04-17T02:07:00Z,00000200,01000000,0000.78,0000.70,0000.26,0000.11,0000.11,0000.22,0000.47,0000.37,0000.05,17.4,24.4,,00.0,0648.9,31.0
2021-04-17T02:08:00Z,00000200,01000000,0001.28,0000.73,0000.05,0000.18,0000.15,-000.07,0000.12,0000.36,-000.15,17.5,24.5,,00.0,0648.7,31.0
2021-04-17T02:09:00Z,00000200,01000000,0000.85,0000.51,0000.09,0000.31,0000.07,-000.02,0000.21,0000.27,0000.33,17.6,24.5,,00.0,0648.7,31.0
2021-04-17T02:10:00Z,00000200,01000000,0000.41,0000.47,0000.07,0000.03,0000.37,-000.14,0000.30,0000.22,0000.39,17.6,24.5,,00.0,0648.6,31.0
2021-04-17T02:11:00Z,00000200,01000000,0000.72,0000.49,0000.21,0000.46,0000.05,-000.08,0000.26,-000.16,-000.29,17.7,24.6,,00.0,0648.7,31.0
2021-04-17T02:12:00Z,00000200,01000000,0000.93,0000.69,0000.17,0000.40,0000.25,-000.21,-000.29,0000.53,0000.01,17.7,24.6,,00.0,0648.8,31.0
2021-04-17T02:13:00Z,00000200,01000000,0000.78,0000.54,0000.46,0000.15,0000.13,0000.08,0000.45,0000.09,0000.52,17.7,24.6,,00.0,0648.9,31.0
2021-04-17T02:14:00Z,00000200,01000000,0000.67,0000.67,0000.06,0000.36,0000.00,-000.04,-000.02,-000.11,-000.20,17.7,24.5,,00.0,0649.0,31.0
2021-04-17T02:15:00Z,00000200,01000000,0000.99,0000.45,0000.13,0000.12,0000.01,-000.00,0000.12,0000.22,0000.20,17.6,24.5,,00.0,0649.1,31.0
2021-04-17T02:16:00Z,00000200,01000000,0001.06,0000.43,0000.40,0000.34,0000.02,0000.03,0000.53,0000.32,0000.01,17.5,24.5,,00.0,0649.3,31.0
2021-04-17T02:17:00Z,00000200,01000000,0000.90,0000.43,0000.23,0000.39,0000.21,0000.12,0000.02,0000.13,0000.09,17.5,24.4,,00.0,0649.4,31.0
2021-04-17T02:18:00Z,00000200,01000000,0000.39,0000.38,0000.39,-000.41,-000.10,0000.07,-000.32,-000.23,0000.04,17.4,24.4,,00.0,0649.5,31.0
2021-04-17T02:19:00Z,00000200,01000000,0000.59,0000.59,0000.13,0000.15,-000.15,0000.22,0000.59,0000.12,0000.53,17.4,24.4,,00.0,0649.5,31.0
2021-04-17T02:20:00Z,00000200,01000000,0001.06,0000.38,0000.58,-000.12,0000.12,-000.02,0000.18,0000.44,0000.38,17.4,24.4,,00.0,0649.5,31.0
2021-04-17T02:21:00Z,00000200,01000000,0000.64,0000.59,-000.10,0000.24,0000.28,-000.43,0000.33,0000.52,-000.06,17.5,24.4,,00.0,0649.4,31.0
2021-04-17T02:22:00Z,00000200,01000000,0000.86,0000.19,0000.27,-000.29,0000.38,0000.09,0000.46,0000.34,0000.51,17.5,24.4,,00.0,0649.4,31.0
2021-04-17T02:23:00Z,00000200,01000000,0000.62,0000.71,0000.25,0000.09,0000.38,-000.32,0000.13,0000.06,0000.31,17.6,24.5,,00.0,0649.2,31.0
2021-04-17T02:24:00Z,00000200,01000000,0001.04,0000.53,0000.38,0000.18,0000.16,-000.16,0000.16,0000.16,-000.30,17.7,24.5,,00.0,0649.1,31.0
2021-04-17T02:25:00Z,00000200,01000000,0000.78,0000.64,0000.44,0000.44,0000.32,-000.18,0000.03,0000.29,0000.32,17.7,24.5,,00.0,0649.0,31.0
2021-04-17T02:26:00Z,00000200,01000000,0000.62,0000.69,0000.43,0000.11,0000.02,0000.08,0000.93,0000.15,0000.14,17.7,24.5,,00.0,0649.0,31.0
2021-04-17T02:27:00Z,00000200,01000000,0000.78,0000.52,0000.23,0000.46,-000.12,0000.08,-000.15,0000.27,0000.24,17.7,24.5,,00.0,0649.0,31.0
2021-04-17T02:28:00Z,00000200,01000000,0001.07,0000.49,0000.27,0000.24,0000.17,-000.31,-000.14,0000.25,0000.10,17.6,24.5,,00.0,0649.0,31.0
2021-04-17T02:29:00Z,00000200,01000000,0000.44,0000.83,0000.23,0000.21,0000.20,-000.24,0000.13,-000.04,-000.18,17.6,24.5,,00.0,0649.1,31.0
2021-04-17T02:30:00Z,00000200,01000000,0001.27,0000.55,0000.32,-000.20,0000.16,0000.03,0000.40,0000.46,0000.21,17.5,24.5,,00.0,0649.2,31.0
2021-04-17T02:31:00Z,00000200,01000000,0000.41,0000.81,0000.20,0000.71,0000.07,0000.05,0000.39,-000.15,0000.17,17.5,24.4,,00.0,0649.4,31.0
2021-04-17T02:32:00Z,00000200,01000000,0000.36,0000.56,0000.33,0000.15,0000.08,0000.09,0000.34,0000.53,0000.42,17.4,24.4,,00.0,0649.5,31.0
2021-04-17T02:33:00Z,00000200,01000000,0001.00,0000.79,0000.62,0000.45,-000.01,0000.08,-000.21,-000.62,0000.00,17.3,24.4,,00.0,0649.6,31.0
2021-04-17T02:34:00Z,00000200,01000000,0001.12,0000.55,0000.31,0000.03,0000.30,0000.18,0000.39,0000.52,0000.47,17.3,24.4,,00.0,0649.7,30.9
2021-04-17T02:35:00Z,00000200,01000000,0000.52,0000.65,0000.28,-000.20,0000.11,-000.05,0000.44,0000.65,0000.40,17.4,24.4,,00.0,0649.7,31.0
2021-04-17T02:36:00Z,00000200,01000000,0000.54,0000.47,0000.28,-000.04,0000.03,-000.14,0000.67,0000.45,-000.14,17.4,24.4,,00.0,0649.6,31.0
2021-04-17T02:37:00Z,00000200,01000000,0001.28,0000.30,0000.18,0000.33,0000.33,0000.14,-000.27,0000.07,0000.31,17.5,24.4,,00.0,0649.5,31.0
2021-04-17T02:38:00Z,00000200,01000000,0000.34,0000.36,0000.00,0000.36,0000.18,-000.06,0000.28,0000.40,0000.24,17.6,24.5,,00.0,0649.5,31.0
2021-04-17T02:39:00Z,00000200,01000000,0000.97,0000.31,-000.11,0000.04,0000.01,0000.07,0000.49,0000.61,0000.27,17.6,24.5,,00.0,0649.2,31.0
2021-04-17T02:40:00Z,00000200,01000000,0000.44,0000.57,0000.09,0000.06,0000.04,-000.19,-000.13,0000.01,-000.22,17.7,24.5,,00.0,0649.0,31.1
2021-04-17T02:41:00Z,00000200,01000000,0001.22,0000.37,0000.32,-000.27,0000.18,0000.01,0000.47,0000.02,0000.04,17.7,24.5,,00.0,0648.8,31.1
2021-04-17T02:42:00Z,00000200,01000000,0000.92,0000.45,0000.29,0000.22,-000.08,-000.25,0000.17,-000.14,0000.26,17.7,24.5,,00.0,0648.8,31.0
2021-04-17T02:43:00Z,00000200,01000000,0001.05,0000.72,0000.13,-000.21,0000.22,0000.07,-000.12,0000.05,-000.16,17.7,24.5,,00.0,0648.7,31.0
2021-04-17T02:44:00Z,00000200,01000000,0001.01,0000.43,0000.35,0000.09,0000.35,-000.06,0000.52,0000.61,0000.63,17.6,24.5,,00.0,0648.7,31.0
2021-04-17T02:45:00Z,00000200,01000000,0001.04,0000.82,0000.26,0000.18,0000.16,-000.20,0000.03,0000.19,0000.04,17.5,24.5,,00.0,0648.7,31.0
2021-04-17T02:46:00Z,00000200,01000000,0001.15,0000.75,0000.34,0000.20,0000.22,-000.20,0000.34,-000.12,0000.29,17.5,24.4,,00.0,0648.9,31.0
2021-04-17T02:47:00Z,00000200,01000000,0001.17,0000.84,0000.49,0000.25,0000.29,-000.00,0000.34,0000.65,0000.23,17.4,24.4,,00.0,0649.0,31.0
2021-04-17T02:48:00Z,00000200,01000000,0000.79,0000.51,0000.22,0000.05,0000.18,-000.00,-000.03,-000.40,0000.02,17.4,24.4,,00.0,0649.2,31.0
2021-04-17T02:49:00Z,00000200,01000000,0000.88,0000.65,0000.29,0000.53,-000.05,0000.06,0000.54,0000.85,0000.21,17.3,24.4,,00.0,0649.3,30.9
2021-04-17T02:50:00Z,00000200,01000000,0001.46,0000.50,0000.01,0000.11,0000.11,-000.10,0000.71,0000.02,0000.30,17.4,24.4,,00.0,0649.4,31.0
2021-04-17T02:51:00Z,00000200,01000000,0001.64,0000.74,0000.31,0000.09,0000.01,0000.06,-000.26,0000.32,-000.05,17.4,24.4,,00.0,0649.5,31.0
2021-04-17T02:52:00Z,00000200,01000000,0000.83,0000.47,0000.35,-000.03,0000.06,0000.03,0000.48,0000.60,0001.01,17.5,24.4,,00.0,0649.5,31.0
2021-04-17T02:53:00Z,00000200,01000000,0000.82,0000.39,0000.21,0000.09,0000.19,0000.31,0000.47,0000.30,-000.17,17.6,24.4,,00.0,0649.6,31.0
2021-04-17T02:54:00Z,00000200,01000000,0000.73,0000.60,0000.57,-000.16,0000.27,-000.01,-000.14,0000.16,0000.16,17.6,24.4,,00.0,0649.5,31.0
2021-04-17T02:55:00Z,00000200,01000000,0001.14,0000.82,0000.37,0000.37,0000.31,-000.08,0000.22,-000.21,0000.20,17.7,24.5,,00.0,0649.5,31.0
2021-04-17T02:56:00Z,00000200,01000000,0001.20,0000.59,0000.34,0000.16,0000.03,0000.20,0000.16,0000.26,-000.22,17.7,24.5,,00.0,0649.4,31.0
2021-04-17T02:57:00Z,00000200,41000000,,,,,,,0000.46,0000.59,0000.14,17.7,24.5,,00.0,0649.4,31.0
2021-04-17T02:58:00Z,00000200,61000000,,,,,,,-000.14,-000.28,0000.06,17.3,24.6,,00.0,0648.3,31.0
2021-04-17T02:59:00Z,00000200,21000000,,,,,,,-000.14,-000.39,0000.18,17.3,24.7,,00.0,0648.2,31.0
